[[{"header":{"parameterUnit":"m.s-1","parameterCategory":1,"la1":30.2991,"la2":30.254,"lo1":-89.0895,"lo2":-89.0444,"dy":0.0017,"dx":0.0017,"nx":28,"ny":28,"refTime":"2024-05-05T09:00:00:Z","depth":0,"parameterNumber":2,"parameterNumberName":"U-component_of_WINDS"},"data":[0,0,0,0,0,0,0,0,0,0,0,0,0,0,0,0,0,0,0,0,0,0,0,0,0,0,0,0,0,0,0,0,0,0,0,0,0,0,0,0,0,0,0,0,0,0,0,0,0,0,0,0,0,0,0,0,0,0,-2.3636,-2.3638,0,-2.3757,-2.3758,-2.3759,-2.3781,-2.378,-2.3779,-2.3778,-2.3903,-2.3908,-2.3912,0,0,0,0,0,0,0,0,0,0,0,0,0,-2.3428,-2.3432,-2.3636,-2.3638,-2.3639,-2.3756,-2.3758,-2.376,-2.3781,-2.378,-2.3779,-2.3778,-2.3902,-2.3907,-2.3912,0,0,0,0,0,0,0,0,0,0,0,0,0,-2.3531,-2.3433,-2.3636,-2.3664,-2.3668,-2.3756,-2.3758,-2.376,-2.3782,-2.378,-2.3779,-2.3777,-2.39,-2.3907,-2.3913,-2.3982,0,0,-2.3932,-2.3935,0,0,0,0,0,0,0,0,-2.3525,-2.3538,-2.3658,-2.3662,-2.3667,-2.3752,-2.3731,-2.3835,-2.3782,-2.3738,-2.3778,-2.3776,-2.3854,-2.3865,-2.389,-2.3988,-2.3993,-2.3933,-2.3937,-2.394,-2.3941,0,0,0,0,0,0,0,-2.3518,-2.3533,-2.3684,-2.366,-2.3665,-2.3672,-2.3685,-2.375,-2.3803,-2.3742,-2.3744,-2.3758,-2.3856,-2.3884,-2.3894,-2.3995,-2.3933,-2.3938,-2.3942,-2.3945,-2.4157,-2.4159,0,0,0,0,0,0,-2.3505,-2.3527,-2.368,-2.3688,-2.3591,-2.3677,-2.3691,-2.3726,-2.3803,-2.3813,-2.3759,-2.3758,-2.3874,-2.3886,-2.3898,-2.3985,-2.394,-2.3946,-2.3949,-2.4155,-2.4157,-2.4159,0,0,0,0,0,0,-2.3501,-2.3519,-2.3675,-2.3608,-2.3628,-2.3682,-2.3721,-2.3729,-2.3757,-2.3815,-2.3825,-2.3777,-2.3873,-2.3889,-2.3961,-2.3989,-2.3948,-2.3954,-2.4153,-2.4156,-2.4158,-2.4158,0,0,0,0,0,0,-2.3495,-2.3517,-2.3543,-2.3608,-2.3632,-2.3735,-2.3723,-2.3733,-2.3768,-2.3768,-2.3835,-2.3845,-2.3873,-2.3952,-2.3968,-2.3997,-2.3959,-2.4151,-2.4154,-2.4157,-2.4155,-2.416,-2.4164,0,0,0,0,0,-2.3487,-2.3538,-2.3544,-2.3563,-2.3665,-2.3737,-2.3751,-2.3781,-2.377,-2.3797,-2.3835,-2.3843,-2.3984,-2.3959,-2.3977,-2.4009,-2.4149,-2.4153,-2.4157,-2.4154,-2.4159,-2.4164,0,0,0,0,0,0,-2.3476,-2.3547,-2.3555,-2.3628,-2.3676,-2.374,-2.3776,-2.3786,-2.3839,-2.3837,-2.3874,-2.3889,-2.3959,-2.3992,-2.3963,-2.4081,-2.4066,-2.4074,-2.4057,-2.4063,-2.4067,-2.4057,-2.3965,0,0,0,0,0,-2.3481,-2.3533,-2.3593,-2.3652,-2.3676,-2.3722,-2.3754,-2.3774,-2.3825,-2.3846,-2.3889,-2.3939,-2.3995,-2.4031,-2.4085,-2.4161,-2.4176,-2.4192,-2.4196,-2.4199,-2.4205,-2.4249,-2.4256,-2.4172,-2.4172,-2.4172,0,0,-2.3494,-2.354,-2.357,-2.3651,-2.3691,-2.3744,-2.3739,-2.3795,-2.3835,-2.3855,-2.3925,-2.3958,-2.4017,-2.4091,-2.4126,-2.412,-2.4232,-2.4204,-2.4206,-2.4211,-2.4253,-2.4261,-2.4268,-2.4175,-2.4175,-2.4174,0,0,-2.3545,-2.3584,-2.3638,-2.3678,-2.3738,-2.3768,-2.3781,-2.3844,-2.3866,-2.3938,-2.3954,-2.4003,-2.4097,-2.4139,-2.4172,-2.424,-2.4249,-2.4257,-2.4279,-2.432,-2.4327,-2.4333,-2.4357,-2.4365,-2.4263,-2.4263,-2.4263,0,-2.3554,-2.3633,-2.3665,-2.3721,-2.3756,-2.3776,-2.3831,-2.3869,-2.3944,-2.3968,-2.396,-2.408,-2.4121,-2.4206,-2.4222,-2.4249,-2.4265,-2.4249,-2.4323,-2.4329,-2.4336,-2.4359,-2.4368,-2.4263,-2.4263,-2.4263,-2.4263,0,-2.3641,-2.3696,-2.3733,-2.3804,-2.3844,-2.3899,-2.394,-2.3977,-2.3993,-2.4025,-2.4098,-2.4148,-2.4213,-2.4234,-2.4251,-2.4322,-2.4316,-2.4315,-2.4301,-2.4343,-2.4366,-2.4376,-2.4264,-2.4264,-2.4264,-2.4263,0,0,-2.3687,-2.3775,-2.3788,-2.3821,-2.3888,-2.3932,-2.3989,-2.4052,-2.4083,-2.4134,-2.4183,-2.4264,-2.4264,-2.4302,-2.4324,-2.436,-2.4411,-2.4355,-2.4357,-2.4364,-2.4492,-2.4492,-2.4501,-2.4418,-2.442,-2.4421,-2.4487,0,-2.3746,-2.3846,-2.3877,-2.3962,-2.4013,-2.4034,-2.4083,-2.4131,-2.4162,-2.4211,-2.4246,-2.4303,-2.4298,-2.4321,-2.4358,-2.4397,-2.4437,-2.4392,-2.4464,-2.4466,-2.4448,-2.4513,-2.4513,-2.4573,-2.4496,-2.4498,-2.4499,0,-2.3827,-2.3879,-2.3969,-2.403,-2.4053,-2.4097,-2.4158,-2.4205,-2.4259,-2.428,-2.4322,-2.4342,-2.4403,-2.4385,-2.4471,-2.444,-2.4471,-2.4495,-2.4498,-2.4505,-2.4485,-2.4523,-2.4593,-2.4602,-2.4513,-2.4512,-2.4511,0,-2.3852,-2.3944,-2.401,-2.4038,-2.4111,-2.4141,-2.4174,-2.4227,-2.4263,-2.4317,-2.4341,-2.4401,-2.4434,-2.4481,-2.4516,-2.45,-2.4598,-2.4584,-2.4617,-2.4616,-2.4637,-2.4635,-2.4713,-2.4657,-2.4657,-2.4657,-2.4657,0,-2.3914,-2.3968,-2.4022,-2.4062,-2.4124,-2.4159,-2.422,-2.4253,-2.4301,-2.4349,-2.4371,-2.4415,-2.4459,-2.4511,-2.4539,-2.4605,-2.462,-2.4639,-2.4646,-2.4637,-2.4634,-2.4657,-2.4654,-2.4659,-2.4659,-2.4658,-2.4658,0,-2.3952,-2.399,-2.4063,-2.4126,-2.4144,-2.4186,-2.4241,-2.4282,-2.4314,-2.4375,-2.4391,-2.4442,-2.4503,-2.4543,-2.4622,-2.4641,-2.4713,-2.4719,-2.4694,-2.4698,-2.4729,-2.4725,-2.4824,-2.4839,-2.4774,-2.4774,-2.4775,0,-2.3989,-2.4031,-2.4099,-2.4132,-2.4164,-2.4217,-2.4254,-2.4291,-2.4329,-2.4395,-2.4428,-2.449,-2.4542,-2.464,-2.4684,-2.4744,-2.4752,-2.4782,-2.4761,-2.4751,-2.4752,-2.4749,-2.4754,-2.4786,-2.4786,-2.4787,-2.4787,0,-2.405,-2.4067,-2.4119,-2.4178,-2.4221,-2.4269,-2.4318,-2.4344,-2.4389,-2.4431,-2.4493,-2.4534,-2.4614,-2.4676,-2.474,-2.4775,-2.4789,-2.4793,-2.4804,-2.4795,-2.4779,-2.4789,-2.4704,-2.4791,-2.479,-2.479,-2.479,-2.479,-2.4089,-2.4127,-2.4181,-2.4238,-2.4279,-2.4323,-2.4365,-2.4402,-2.4454,-2.4521,-2.454,-2.4606,-2.4661,-2.4749,-2.4784,-2.4837,-2.4833,-2.4849,-2.4853,-2.4856,-2.4857,-2.4771,-2.4849,-2.4849,-2.4849,-2.4849,-2.4849,0,-2.4152,-2.4187,-2.424,-2.4306,-2.4352,-2.436,-2.4414,-2.4452,-2.4509,-2.4558,-2.4609,-2.4681,-2.4742,-2.4791,-2.4854,-2.4886,-2.4894,-2.4902,-2.49,-2.4907,-2.4856,-2.484,-2.4894,-2.4894,-2.4894,-2.4894,-2.4894,-2.4894,-2.419,-2.4255,-2.4279,-2.4365,-2.44,-2.4464,-2.4494,-2.4536,-2.4576,-2.4655,-2.4705,-2.4736,-2.4786,-2.4853,-2.4909,-2.4922,-2.4945,-2.495,-2.4965,-2.4916,-2.4911,-2.4906,-2.4891,-2.4955,-2.4955,-2.5012,-2.5012,-2.5013]},{"header":{"parameterUnit":"m.s-1","parameterCategory":1,"la1":30.2991,"la2":30.254,"lo1":-89.0895,"lo2":-89.0444,"dy":0.0017,"dx":0.0017,"nx":28,"ny":28,"refTime":"2024-05-05T09:00:00:Z","depth":0,"parameterNumber":3,"parameterNumberName":"V-component_of_WINDS"},"data":[0,0,0,0,0,0,0,0,0,0,0,0,0,0,0,0,0,0,0,0,0,0,0,0,0,0,0,0,0,0,0,0,0,0,0,0,0,0,0,0,0,0,0,0,0,0,0,0,0,0,0,0,0,0,0,0,0,0,4.0472,4.0472,0,4.0532,4.0533,4.0534,4.0518,4.0516,4.0515,4.0514,4.0573,4.0575,4.0578,0,0,0,0,0,0,0,0,0,0,0,0,0,4.0339,4.0341,4.0472,4.0473,4.0473,4.0532,4.0533,4.0534,4.0518,4.0516,4.0515,4.0514,4.0572,4.0575,4.0578,0,0,0,0,0,0,0,0,0,0,0,0,0,4.0398,4.0342,4.0472,4.0472,4.0473,4.0532,4.0533,4.0534,4.0518,4.0516,4.0515,4.0513,4.0571,4.0575,4.0579,4.0639,0,0,4.0591,4.0593,0,0,0,0,0,0,0,0,4.0394,4.0402,4.0472,4.0473,4.0473,4.0516,4.0508,4.0569,4.0519,4.0501,4.0514,4.0512,4.0555,4.056,4.0575,4.0642,4.0645,4.0591,4.0594,4.0595,4.0597,0,0,0,0,0,0,0,4.039,4.04,4.0496,4.0473,4.0474,4.0469,4.0475,4.0519,4.0537,4.0502,4.0501,4.0509,4.0555,4.0572,4.0577,4.0646,4.0591,4.0595,4.0597,4.0599,4.0766,4.0768,0,0,0,0,0,0,4.0386,4.0397,4.0494,4.0497,4.0429,4.0473,4.048,4.0504,4.0537,4.054,4.051,4.0508,4.0566,4.0572,4.0579,4.0652,4.0595,4.0599,4.0601,4.0764,4.0766,4.0768,0,0,0,0,0,0,4.0383,4.0395,4.0491,4.0447,4.0459,4.0477,4.0504,4.0506,4.0523,4.0543,4.0546,4.0524,4.0564,4.0573,4.0625,4.0654,4.0601,4.0605,4.0761,4.0764,4.0767,4.08,0,0,0,0,0,0,4.0379,4.0394,4.0418,4.0448,4.0461,4.0538,4.0506,4.0509,4.053,4.0527,4.0557,4.056,4.0564,4.0619,4.0629,4.0659,4.0608,4.0759,4.0763,4.0766,4.0797,4.0804,4.081,0,0,0,0,0,4.0375,4.0424,4.0419,4.0431,4.0492,4.0539,4.0547,4.0552,4.0532,4.0556,4.0569,4.0559,4.0649,4.0624,4.0635,4.0667,4.0757,4.0761,4.0766,4.0794,4.0803,4.081,0,0,0,0,0,0,4.0396,4.0428,4.0423,4.0483,4.0509,4.0536,4.0567,4.0561,4.0592,4.0588,4.0591,4.0598,4.0651,4.0664,4.0636,4.0728,4.07,4.0707,4.0717,4.0726,4.0733,4.0729,4.0611,0,0,0,0,0,4.0408,4.0445,4.047,4.0521,4.0534,4.0548,4.0569,4.0571,4.0597,4.0607,4.0624,4.0649,4.0683,4.0705,4.0738,4.0798,4.0804,4.0826,4.0832,4.0838,4.0844,4.0877,4.0887,4.0783,4.0783,4.0783,0,0,4.0432,4.0454,4.0477,4.0526,4.0546,4.0583,4.0558,4.0598,4.0626,4.0613,4.0663,4.0677,4.0704,4.0761,4.0787,4.0774,4.0874,4.0844,4.0848,4.0851,4.0883,4.0893,4.0902,4.0786,4.0786,4.0785,0,0,4.0497,4.0517,4.0562,4.0583,4.0614,4.0623,4.0634,4.0663,4.0671,4.0722,4.0714,4.0746,4.0805,4.0825,4.0843,4.0916,4.0907,4.0926,4.0962,4.0994,4.1003,4.101,4.1036,4.1045,4.0932,4.0932,4.0932,0,4.0523,4.058,4.0585,4.0627,4.0649,4.064,4.0686,4.0705,4.0745,4.0759,4.0744,4.0818,4.0836,4.0898,4.0916,4.093,4.0942,4.0923,4.1001,4.1009,4.1015,4.104,4.105,4.0934,4.0934,4.0933,4.0933,0,4.0611,4.0651,4.0683,4.0723,4.0748,4.0792,4.0803,4.0827,4.0827,4.0837,4.0889,4.091,4.0947,4.0962,4.0961,4.1024,4.1015,4.1,4.0973,4.1027,4.1051,4.106,4.0937,4.0936,4.0936,4.0935,0,0,4.069,4.0733,4.0745,4.0764,4.0797,4.0828,4.087,4.0908,4.0929,4.0956,4.0992,4.1042,4.1029,4.105,4.1051,4.1079,4.1136,4.1062,4.1062,4.1075,4.1206,4.1217,4.1228,4.113,4.1132,4.1134,4.1204,0,4.0758,4.0834,4.084,4.0909,4.0945,4.0938,4.0975,4.0999,4.101,4.1042,4.1054,4.109,4.107,4.1082,4.111,4.1123,4.1162,4.1118,4.1163,4.1164,4.1157,4.124,4.1252,4.1317,4.1213,4.1215,4.1216,0,4.0847,4.0878,4.0951,4.098,4.0996,4.1029,4.1064,4.1095,4.1122,4.1128,4.1152,4.1149,4.1192,4.1163,4.1222,4.1192,4.121,4.1219,4.1222,4.1226,4.1194,4.1247,4.1338,4.1348,4.123,4.1229,4.1228,0,4.0898,4.0958,4.101,4.1026,4.1061,4.1085,4.11,4.1126,4.1148,4.1178,4.1192,4.1227,4.1245,4.1271,4.1278,4.1256,4.1337,4.1308,4.1343,4.1343,4.136,4.1359,4.1456,4.1372,4.1371,4.1371,4.1371,0,4.0972,4.1017,4.1033,4.1065,4.1115,4.1121,4.117,4.1184,4.1206,4.124,4.1235,4.1266,4.1273,4.1306,4.1311,4.1359,4.1367,4.1373,4.1374,4.1374,4.1373,4.1386,4.1382,4.1374,4.1373,4.1373,4.1372,0,4.1038,4.1051,4.1106,4.1136,4.1144,4.1179,4.1204,4.1234,4.1244,4.1287,4.1297,4.1313,4.1351,4.1361,4.1405,4.1409,4.1466,4.1462,4.1457,4.1457,4.1491,4.1488,4.16,4.1615,4.1521,4.1522,4.1522,0,4.1085,4.112,4.1153,4.1176,4.1193,4.123,4.1253,4.126,4.1284,4.1318,4.1344,4.1381,4.1412,4.1473,4.1488,4.1522,4.1519,4.1556,4.1524,4.1523,4.152,4.1519,4.1522,4.1562,4.1563,4.1564,4.1565,0,4.1168,4.1173,4.1207,4.1244,4.1272,4.13,4.1328,4.1346,4.1357,4.1384,4.1424,4.1448,4.1494,4.1532,4.1566,4.1581,4.1575,4.1575,4.1585,4.1585,4.1581,4.1584,4.1474,4.1572,4.1571,4.1571,4.157,4.157,4.1226,4.1257,4.1285,4.1324,4.1345,4.1371,4.1401,4.1416,4.1449,4.1489,4.149,4.1534,4.156,4.1606,4.1623,4.1656,4.1644,4.1658,4.1662,4.1666,4.1669,4.1575,4.1662,4.1662,4.1661,4.1661,4.1661,0,4.1309,4.1327,4.1362,4.1402,4.1432,4.1424,4.1454,4.148,4.1518,4.1543,4.1574,4.162,4.1656,4.1674,4.171,4.1733,4.1731,4.1742,4.174,4.1744,4.1677,4.1665,4.1743,4.1743,4.1743,4.1743,4.1743,4.1743,4.1356,4.1407,4.1415,4.1477,4.1495,4.1538,4.1556,4.158,4.16,4.1652,4.1682,4.1694,4.1717,4.1754,4.1787,4.1791,4.1804,4.1817,4.182,4.1757,4.1749,4.1741,4.173,4.182,4.182,4.1885,4.1885,4.1886]}]]